Pittsburg, KS

10:44 AM CST on November 12, 2019 (GMT -0600)
Atkinson Municipal

Weather History for KPTS - October, 2019

Change the Weather History Date:

Tuesday, October 22, 2019

  Actual Average (WUND) Record (WUND)
Temperature  
Mean Temperature 50 °F -  
Max Temperature 61 °F - - (-1)
Min Temperature 40 °F - - (-1)
Degree Days  
Heating Degree Days 14    
Moisture  
Dew Point 35 °F    
Average Humidity 59    
Maximum Humidity 87    
Minimum Humidity 35    
Precipitation  
Precipitation 0.00 in - - ()
Sea Level Pressure  
Sea Level Pressure 30.03 in    
Wind  
Wind Speed 6 mph (West)    
Max Wind Speed 13 mph    
Max Gust Speed 24 mph    
Visibility 10 miles    
Events      
Averages and records for this station are not official NWS values.
T = Trace of Precipitation, MM = Missing Value Source: NWS Daily Summary

Daily Weather History Graph

Daily Weather History Graph

Search for Another Location

Airport or City:

Astronomy

Oct. 22, 2019 Rise Set
Actual Time 7:33 AM CDT 6:32 PM CDT
Civil Twilight 7:06 AM CDT 6:59 PM CDT
Nautical Twilight 6:36 AM CDT 7:29 PM CDT
Astronomical Twilight 6:06 AM CDT 7:59 PM CDT
Moon 12:54 AM CDT (10/22) 3:33 PM CDT (10/22)
Length of Visible Light 11h 52m
Length of Day
10h 59m
Last Quarter, 37% of the Moon is Illuminated
Oct 22
Last Quarter
Oct 27
New
Nov 4
First Quarter
Nov 12
Full
Nov 19
Last Quarter

Hourly Weather History & Observations

Time (CDT) Temp. Windchill Dew Point Humidity Pressure Visibility Wind Dir Wind Speed Gust Speed Precip Events Conditions
12:15 AM 50.9 °F - 36.5 °F 58% 29.94 in 10.0 mi WNW 5.8 mph - N/A   Clear
12:35 AM 50.0 °F - 36.5 °F 60% 29.95 in 10.0 mi WNW 6.9 mph - N/A   Clear
12:55 AM 49.5 °F - 36.7 °F 61% 29.96 in 10.0 mi West 3.5 mph - N/A   Clear
1:15 AM 48.9 °F - 36.7 °F 63% 29.95 in 10.0 mi NW 4.6 mph - N/A   Clear
1:35 AM 48.6 °F - 36.3 °F 63% 29.95 in 10.0 mi WNW 4.6 mph - N/A   Clear
1:55 AM 47.8 °F - 35.8 °F 63% 29.96 in 10.0 mi West 3.5 mph - N/A   Clear
2:15 AM 47.3 °F - 35.4 °F 63% 29.96 in 10.0 mi West 5.8 mph - N/A   Clear
2:55 AM 46.9 °F - 34.3 °F 62% 29.98 in 10.0 mi West 4.6 mph - N/A   Clear
3:15 AM 46.2 °F 42.7 °F 34.2 °F 63% 29.99 in 10.0 mi WSW 6.9 mph - N/A   Clear
3:35 AM 45.5 °F 41.3 °F 35.1 °F 67% 29.99 in 10.0 mi West 8.1 mph - N/A   Clear
3:55 AM 45.5 °F 41.8 °F 35.1 °F 67% 29.99 in 10.0 mi West 6.9 mph - N/A   Clear
4:15 AM 45.7 °F 42.0 °F 34.0 °F 64% 29.99 in 10.0 mi West 6.9 mph - N/A   Clear
4:35 AM 45.3 °F 41.6 °F 33.4 °F 63% 29.99 in 10.0 mi West 6.9 mph - N/A   Clear
4:55 AM 45.0 °F 41.2 °F 32.7 °F 62% 29.99 in 10.0 mi West 6.9 mph - N/A   Clear
5:15 AM 44.8 °F 41.0 °F 32.4 °F 62% 30.00 in 10.0 mi West 6.9 mph - N/A   Clear
5:35 AM 44.2 °F 40.3 °F 32.2 °F 63% 30.02 in 10.0 mi West 6.9 mph - N/A   Clear
5:55 AM 43.7 °F 40.3 °F 32.0 °F 63% 30.02 in 10.0 mi West 5.8 mph - N/A   Clear
6:35 AM 42.4 °F 38.1 °F 32.0 °F 67% 30.03 in 10.0 mi West 6.9 mph - N/A   Clear
6:55 AM 42.1 °F 39.2 °F 32.0 °F 67% 30.04 in 10.0 mi West 4.6 mph - N/A   Clear
7:35 AM 40.5 °F 37.3 °F 32.0 °F 72% 30.04 in 10.0 mi WSW 4.6 mph - N/A   Clear
7:55 AM 40.1 °F 36.9 °F 32.0 °F 73% 30.05 in 10.0 mi WSW 4.6 mph - N/A   Clear
8:15 AM 40.8 °F 35.6 °F 32.4 °F 72% 30.06 in 10.0 mi West 8.1 mph - N/A   Clear
8:35 AM 42.4 °F 38.1 °F 32.2 °F 67% 30.07 in 10.0 mi West 6.9 mph - N/A   Clear
8:55 AM 44.1 °F 39.0 °F 32.5 °F 64% 30.08 in 10.0 mi West 9.2 mph - N/A   Clear
9:15 AM 45.7 °F 42.0 °F 32.7 °F 61% 30.09 in 10.0 mi West 6.9 mph - N/A   Clear
9:55 AM 48.7 °F - 33.1 °F 55% 30.09 in 10.0 mi WNW 3.5 mph - N/A   Clear
10:15 AM 50.9 °F - 33.6 °F 52% 30.09 in 10.0 mi NW 6.9 mph - N/A   Clear
10:35 AM 52.3 °F - 33.4 °F 49% 30.09 in 10.0 mi West 6.9 mph - N/A   Clear
10:55 AM 53.4 °F - 33.6 °F 47% 30.09 in 10.0 mi West 6.9 mph - N/A   Clear
11:35 AM 55.9 °F - 34.9 °F 45% 30.09 in 10.0 mi West 6.9 mph 16.1 mph N/A   Clear
12:35 PM 58.1 °F - 34.0 °F 40% 30.09 in 10.0 mi West 10.4 mph 16.1 mph N/A   Clear
12:55 PM 58.8 °F - 34.2 °F 40% 30.08 in 10.0 mi West 8.1 mph 16.1 mph N/A   Clear
1:15 PM 59.7 °F - 35.1 °F 40% 30.08 in 10.0 mi WNW 6.9 mph 18.4 mph N/A   Clear
1:35 PM 59.5 °F - 35.2 °F 40% 30.07 in 10.0 mi West 9.2 mph 17.3 mph N/A   Clear
1:55 PM 60.4 °F - 35.8 °F 40% 30.06 in 10.0 mi West 11.5 mph 21.9 mph N/A   Clear
2:15 PM 60.4 °F - 35.4 °F 39% 30.06 in 10.0 mi West 12.7 mph 21.9 mph N/A   Clear
2:35 PM 60.6 °F - 35.2 °F 39% 30.06 in 10.0 mi West 9.2 mph 23.0 mph N/A   Clear
2:55 PM 61.2 °F - 36.0 °F 39% 30.05 in 10.0 mi West 6.9 mph 24.2 mph N/A   Scattered Clouds
3:15 PM 61.3 °F - 36.0 °F 39% 30.05 in 10.0 mi WNW 6.9 mph 18.4 mph N/A   Mostly Cloudy
3:35 PM 61.2 °F - 36.1 °F 39% 30.04 in 10.0 mi WNW 5.8 mph - N/A   Scattered Clouds
3:55 PM 61.5 °F - 35.6 °F 38% 30.04 in 10.0 mi WNW 10.4 mph 19.6 mph N/A   Scattered Clouds
4:55 PM 61.7 °F - 33.4 °F 35% 30.04 in 10.0 mi West 8.1 mph - N/A   Clear
5:55 PM 60.8 °F - 32.5 °F 35% 30.04 in 10.0 mi West 4.6 mph - N/A   Clear
6:15 PM 59.9 °F - 32.7 °F 36% 30.04 in 10.0 mi West 4.6 mph - N/A   Clear
6:35 PM 58.3 °F - 33.1 °F 39% 30.04 in 10.0 mi West 3.5 mph - N/A   Clear
6:55 PM 55.8 °F - 34.2 °F 44% 30.03 in 10.0 mi Calm Calm - N/A   Clear
7:35 PM 49.3 °F - 38.5 °F 66% 30.04 in 10.0 mi Calm Calm - N/A   Clear
7:55 PM 46.6 °F - 39.6 °F 77% 30.04 in 10.0 mi Calm Calm - N/A   Clear
8:15 PM 45.7 °F - 39.9 °F 80% 30.04 in 10.0 mi Calm Calm - N/A   Clear
8:35 PM 45.3 °F - 40.1 °F 82% 30.04 in 10.0 mi Calm Calm - N/A   Clear
8:55 PM 44.8 °F - 40.5 °F 85% 30.04 in 10.0 mi Calm Calm - N/A   Clear
9:15 PM 44.6 °F - 40.8 °F 87% 30.03 in 10.0 mi Calm Calm - N/A   Clear
9:35 PM 44.8 °F - 40.5 °F 85% 30.03 in 10.0 mi Calm Calm - N/A   Clear
9:55 PM 44.4 °F - 40.1 °F 85% 30.03 in 10.0 mi Calm Calm - N/A   Clear
10:15 PM 44.2 °F - 39.7 °F 84% 30.03 in 10.0 mi Calm Calm - N/A   Clear
10:55 PM 44.1 °F - 37.4 °F 77% 30.03 in 10.0 mi Calm Calm - N/A   Clear
11:55 PM 43.5 °F - 36.7 °F 77% 30.01 in 10.0 mi Calm Calm - N/A   Clear